Location: Gleizolles
(44.4833°N, 6.7667°E)
Time: 01:34:03
(UTC+00:00)

S-56A Canister/Altair - Pass Details

Date: 27 June 2024
Orbit: 638 x 2488 km, 38.9° (Epoch: 24 July)

Event Time Altitude Azimuth Distance (km) Brightness Sun altitude
Rises 16:33:56 0° 179° (S) 3,354 10.7 26.9°
Reaches altitude 10° 16:39:02 10° 139° (SE) 2,813 10.1 26.0°
Maximum altitude 16:40:08 10° 129° (SE) 2,874 10.1 25.8°
Drops below altitude 10° 16:41:18 10° 120° (ESE) 3,005 10.1 25.6°
Sets 16:48:03 0° 85° (E) 4,561 10.9 24.4°
